Temp_Advection
nan nan nan nan nan nan nan nan nan nan nan nan nan nan nan nan nan nan nan nan nan nan nan nan nan nan nan nan nan nan nan nan nan nan nan nan nan nan nan nan nan nan nan nan nan nan nan nan nan nan nan nan nan nan nan nan nan nan nan nan nan nan nan
nan -1 -1 -2 -2 -2 -2 -1 -1 -1 0 1 0 -1 -2 -2 -1 -0 -0 0 0 0 0 -0 0 1 2 1 1 0 0 0 1 1 0 0 0 0 0 0 -0 -0 -0 -1 -1 -2 -2 -0 -0 -1 -1 -0 -0 -0 0 0 0 0 -0 -1 -1 -1 nan
nan -2 -2 -2 -2 -2 -2 -1 -1 -1 -1 -0 0 0 -1 -2 -2 -1 -0 0 0 0 0 -0 -0 0 1 1 1 0 0 0 0 1 0 0 0 0 0 0 -0 -0 -0 -0 -1 -1 -2 -1 -1 -1 -0 0 -0 -0 -0 0 0 0 -0 -1 -1 -1 nan
nan -3 -3 -3 -2 -2 -1 -1 -1 -1 -0 1 0 -1 -2 -2 -2 -1 -1 -0 0 0 0 -0 -0 -0 0 1 1 0 0 0 0 1 1 0 0 0 0 0 0 -0 -0 -0 -1 -1 -1 -1 -2 -1 0 0 -0 -1 -0 0 0 0 -0 -1 -1 -1 nan
nan -2 -3 -3 -3 -2 -2 -1 -1 -2 -2 0 2 0 -2 -2 -2 -2 -1 -0 -0 0 0 -0 -0 -0 -0 1 1 1 1 0 0 1 0 0 0 0 0 0 0 -0 -0 -0 -1 -1 -1 -1 -2 -1 -0 -0 -0 -0 0 0 0 0 -0 -1 -1 -1 nan
nan -1 -2 -3 -3 -2 -2 -2 -1 -1 -3 -2 0 1 0 -1 -3 -3 -2 -1 -0 0 0 0 0 -0 -0 0 1 1 1 0 0 0 0 1 0 0 0 0 0 0 -0 -0 -0 -0 -0 -1 -2 -2 -1 -0 0 -0 -0 0 0 1 0 -1 -1 -1 nan
nan -1 -1 -2 -3 -2 -2 -2 -2 -0 -2 -4 -3 -1 0 -0 -2 -3 -3 -2 -1 -0 -0 0 0 -0 -0 -0 0 1 1 1 0 0 0 0 0 0 0 0 0 0 -0 -0 0 -0 -0 -0 -1 -2 -2 0 0 -0 -1 -0 1 1 0 -0 -1 -1 nan
nan -2 -1 -1 -2 -3 -2 -3 -3 -1 -1 -3 -3 -2 -1 -1 -2 -3 -4 -3 -2 -1 -0 0 0 0 -0 -0 0 1 1 0 0 0 0 0 0 0 0 0 0 0 -0 0 0 0 -0 -0 -1 -2 -2 -0 -0 -2 -1 1 1 0 -0 -0 -0 -0 nan
nan -4 -4 -2 -1 -1 -2 -3 -3 -1 -0 -2 -3 -2 -2 -2 -2 -3 -4 -3 -2 -1 -0 -0 -0 -0 -0 0 0 0 1 0 0 0 0 0 0 0 0 0 0 0 0 0 0 0 0 -0 -0 -1 -2 -2 -2 -2 0 2 1 0 -0 -1 -1 -0 nan
nan -2 -3 -4 -3 -1 -1 -2 -2 -1 -1 -2 -3 -3 -3 -2 -2 -2 -3 -2 -2 -1 -0 -0 -0 -0 -0 0 0 -0 -0 -0 -0 -0 -0 0 -0 -0 0 0 0 0 0 0 0 0 -0 -0 -1 -1 -2 -3 -2 0 1 1 1 1 0 -0 -1 -0 nan
nan -2 -1 -3 -4 -2 -1 -1 -1 -1 -2 -3 -3 -3 -2 -3 -2 -2 -2 -2 -2 -1 -1 -0 0 -0 0 0 -0 -0 -0 -1 -1 -1 -0 0 0 0 0 0 0 0 0 0 0 0 0 -0 -1 -1 -2 -3 -1 0 1 1 1 1 0 -0 -1 -0 nan
nan -2 -1 -1 -2 -2 -1 -1 -1 -1 -1 -2 -3 -3 -2 -2 -2 -2 -2 -1 -2 -2 -1 -0 0 0 0 0 0 0 -0 -1 -1 -1 -0 -0 -0 0 0 0 -0 -0 0 0 0 0 0 -1 -1 -0 -2 -3 -2 0 1 1 1 1 0 0 -0 -1 nan
nan -1 -1 -1 -1 -1 -1 -1 -1 -1 -1 -1 -2 -2 -2 -2 -2 -2 -2 -2 -1 -1 -1 -1 -0 0 0 0 0 0 -0 -0 -0 -0 0 -0 0 0 0 0 0 0 0 0 0 0 -0 -1 -1 -1 -3 -3 -0 1 1 1 1 0 0 0 0 -0 nan
nan -2 -1 -0 -1 -1 -1 -2 -1 -1 -1 -1 -2 -2 -1 -1 -1 -2 -2 -2 -1 -1 -1 -1 -0 0 0 0 0 0 0 0 0 0 0 0 0 0 -0 -0 0 0 0 0 0 0 -1 -1 -1 -1 -2 -1 1 0 0 0 0 0 1 0 0 -1 nan
nan -2 -1 -0 -0 -1 -2 -2 -2 -2 -2 -1 -2 -1 -1 -0 -1 -2 -2 -1 -1 -1 -1 -0 0 0 0 0 0 0 0 0 0 0 0 0 0 -0 -0 0 0 0 0 0 0 -0 -1 -1 -0 0 0 0 -0 -0 0 1 0 1 1 0 -0 -1 nan
nan -1 -2 -1 -0 -1 -2 -2 -2 -2 -2 -2 -2 -1 -0 -0 -1 -1 -1 -2 -1 -1 -1 -1 -0 -0 0 0 0 -0 -0 0 0 0 0 0 0 0 0 0 0 0 0 -0 -0 -0 -0 -0 0 0 0 -0 -1 -1 1 1 0 0 0 -0 -1 -1 nan
nan -0 -1 -1 -1 -0 -1 -3 -3 -2 -2 -2 -1 -0 -0 -1 -1 -1 -1 -1 -1 -1 -1 -0 -0 -0 0 0 -0 -0 -0 0 1 0 0 0 0 0 1 0 0 0 -0 -0 -1 -0 1 1 0 -0 -0 -1 -2 -0 1 1 -0 -0 0 -0 -1 -1 nan
nan -0 -0 -1 -1 -0 -0 -2 -2 -2 -2 -2 -1 -0 -1 -1 -1 -1 -1 -1 -1 -1 -1 -0 -0 -0 0 0 -0 -0 -0 0 0 1 1 1 1 1 1 0 0 0 -0 -1 -1 -0 0 0 -0 -0 -0 -1 -1 1 1 -0 -1 -0 0 -1 -1 -0 nan
nan -1 -1 -1 -1 -0 0 -1 -2 -2 -2 -2 -2 -1 -1 -1 -1 -1 -1 -1 -1 -0 -0 -0 -0 0 0 -0 -0 -0 -0 0 0 1 1 1 1 1 0 0 0 -0 -1 -1 -0 -0 0 -0 -0 0 0 -0 0 1 1 -1 -0 1 0 -1 -0 0 nan
nan -1 -1 -1 -1 -1 -0 0 -1 -2 -1 -1 -2 -1 -1 -1 -1 -1 -1 -1 -1 -0 -0 -0 -0 0 0 -0 -0 -0 -0 -0 0 1 1 1 0 0 0 0 0 -0 -1 -1 -0 0 0 0 -0 0 0 0 1 1 -0 -0 0 1 0 -0 0 0 nan
nan -0 -1 -0 -0 -0 -1 0 0 -1 -1 -1 -1 -2 -1 -1 -1 -1 -1 -1 -1 -0 -0 -0 -0 0 0 -0 -0 -0 -0 -0 0 1 1 1 0 0 0 1 0 -0 -0 -0 -0 0 0 0 -0 -0 -0 0 1 0 -0 -0 0 0 -0 0 0 0 nan
nan 0 -1 -1 -0 0 0 0 1 0 -1 -1 -1 -1 -1 -1 -1 -1 -1 -1 -1 -0 -0 -0 -0 0 0 -0 -0 -0 0 -0 0 1 1 0 -0 0 0 0 -0 -0 -0 -0 -0 0 0 -0 -0 -0 0 0 0 0 0 -0 -0 -0 -0 -0 -0 -0 nan
nan -0 -1 -1 -1 -0 1 1 1 1 1 0 -0 -1 -1 -1 -1 -1 -1 -0 -0 -0 -0 -0 -0 0 0 -0 -0 -0 0 0 0 1 0 -0 -0 -0 -0 -0 -0 -0 -0 -0 0 0 0 -1 -1 -1 -0 -0 0 0 0 -0 -1 -1 -1 -0 -0 -0 nan
nan 0 -0 -1 -2 -2 -0 1 1 1 1 1 0 -0 -1 -1 -1 -1 -1 -0 -0 -0 -0 0 -0 0 0 -0 -0 0 0 0 0 1 0 -0 -0 -0 -0 -0 -0 -0 -0 0 0 0 -0 -1 -2 -2 -1 -0 0 0 -0 -0 -1 -1 -0 0 -0 -0 nan
nan -0 0 -0 -1 -2 -1 -0 0 1 1 1 1 0 -0 -1 -0 -0 -0 -0 -0 -0 -0 -0 -0 -0 -0 0 0 0 0 0 1 0 0 -0 -0 -0 -0 -0 -0 -0 0 0 -0 -0 -1 -2 -2 -1 -0 0 0 0 -0 -1 -0 -0 0 0 -0 -0 nan
nan -0 -0 -0 -0 -1 -1 -1 -0 -0 1 1 1 0 0 -0 -0 -1 -1 -0 -0 -0 -0 -0 -0 0 0 0 0 0 0 0 0 0 0 0 0 0 -0 -0 -0 -0 -0 -0 -0 -0 -1 -2 -1 -0 -0 -0 -0 -1 -1 -1 -0 0 -0 -0 -0 -0 nan
nan -0 0 -0 -0 -0 -1 -0 -0 0 0 1 1 0 0 -0 -0 -1 -1 -0 -0 -0 -0 -0 0 0 0 0 0 0 0 0 0 0 0 0 -0 -0 -0 -0 -0 -0 -0 -0 -0 -0 -1 -1 -1 -0 -0 -1 -1 -1 -1 -0 -0 -0 -1 -1 -0 -0 nan
nan -1 -0 -0 -0 -0 -1 -1 0 1 0 1 1 0 0 0 0 -0 -1 -0 -0 0 0 0 0 0 0 0 0 0 0 0 0 0 -0 -0 -0 -1 -1 -0 -0 -0 -0 -0 0 -0 -0 -0 -0 -0 -1 -1 -0 -0 -0 -0 -0 -1 -1 -0 0 0 nan
nan 1 0 -0 0 1 -0 -1 -0 0 1 1 0 0 0 1 0 0 -0 -0 0 -0 0 0 0 0 0 0 0 0 0 0 -0 -0 -1 -1 -1 -1 -1 -0 -0 -0 -0 -0 -0 -0 -0 -1 -0 -0 -0 -0 -0 -0 -0 -1 -1 -1 -1 -0 0 0 nan
nan 2 1 0 0 1 1 0 -1 0 1 1 0 0 0 0 0 0 0 -0 0 0 0 0 0 0 0 0 0 0 -0 -0 -0 -0 -1 -1 -1 -1 -1 -1 -0 -0 -0 -0 -0 -0 -1 -1 -1 -0 -0 -0 -0 -1 -0 -0 -1 -1 -0 0 0 0 nan
nan 0 1 0 -0 -0 1 1 -0 -0 0 1 0 0 0 0 0 0 0 0 0 0 0 0 0 0 0 0 -0 -0 -0 -0 -0 -1 -1 -1 -1 -1 -1 -1 -1 -0 -0 -0 -0 -0 -1 -1 -1 -1 -1 -1 -0 -0 -0 -0 0 0 0 0 0 0 nan
nan -2 -1 -1 -0 -1 -1 -0 0 0 0 0 0 0 0 0 0 0 0 0 0 0 0 -0 -0 -0 -0 -0 -0 -0 -0 -0 -1 -1 -1 -1 -1 -1 -1 -1 -1 -1 -0 -0 -0 -1 -1 -1 -1 -1 -1 -0 -0 -0 -0 0 0 0 0 0 0 0 nan
nan -2 -3 -2 -1 -1 -1 -0 0 0 -0 -0 -0 0 0 0 0 -0 -0 0 0 0 0 -0 -0 -0 -0 -0 -0 -0 -0 -0 -0 -1 -1 -1 -1 -1 -1 -1 -1 -0 -1 -1 -1 -0 -0 -1 -1 -1 -0 -0 0 0 0 0 0 0 0 0 0 0 nan
nan -2 -3 -3 -3 -2 -1 -1 -0 -1 -1 -0 -0 -0 -0 0 -0 -0 -0 -0 -0 -0 0 0 -0 -0 -0 -0 -0 -0 -0 -0 -0 -1 -1 -1 -1 -1 -1 -1 -0 -0 -0 -1 -0 -0 -0 -0 -0 -0 -0 0 0 0 -0 0 0 -0 -0 -0 -0 -0 nan
nan -3 -2 -2 -3 -2 -1 -0 -0 -1 -1 -0 -0 0 0 0 -0 -1 -0 -0 -0 -0 -0 -0 -0 -0 -0 -0 -0 -0 -0 -0 -0 -0 -0 -0 -0 -0 -0 -0 0 -0 -0 -0 -0 -0 -0 0 0 0 0 0 0 0 0 -0 -0 -0 -0 -0 -0 0 nan
nan nan nan nan nan nan nan nan nan nan nan nan nan nan nan nan nan nan nan nan nan nan nan nan nan nan nan nan nan nan nan nan nan nan nan nan nan nan nan nan nan nan nan nan nan nan nan nan nan nan nan nan nan nan nan nan nan nan nan nan nan nan nan
Wind_Speed
47 47 47 47 46 46 46 47 43 39 36 35 38 42 45 46 45 44 44 42 39 38 37 37 39 42 45 45 44 44 43 43 42 42 42 42 42 42 42 42 41 44 47 44 41 41 40 36 33 31 30 29 28 26 25 26 26 26 26 27 27 27 26
46 46 46 46 46 46 46 47 47 46 43 40 38 39 42 44 45 45 46 45 42 40 38 38 39 41 43 44 44 44 43 44 43 42 42 42 42 43 43 41 41 43 44 43 41 40 41 39 37 36 33 30 29 27 27 27 26 26 26 26 27 27 26
46 47 47 47 47 46 46 46 46 47 46 44 42 40 41 43 45 47 47 46 44 42 40 39 39 40 42 43 44 45 44 44 44 43 43 43 42 43 43 42 41 42 43 42 40 39 41 40 39 37 33 30 29 28 27 27 26 26 26 25 25 26 25
46 46 47 48 48 48 47 47 47 48 48 46 43 43 43 43 45 47 48 47 45 43 41 41 41 41 41 42 44 45 45 44 44 44 44 43 43 42 42 41 41 42 42 41 39 39 41 41 39 37 33 30 29 28 27 26 26 26 26 24 24 24 24
47 46 46 47 48 48 49 49 49 49 49 49 46 44 44 45 46 47 48 48 47 45 43 43 43 43 42 42 44 46 46 45 44 44 43 43 43 42 42 41 40 41 41 41 40 40 40 41 40 37 34 30 29 28 27 25 25 25 24 24 24 23 22
49 48 47 47 47 48 49 50 50 49 48 49 48 47 45 45 47 48 49 49 49 48 46 45 45 44 43 43 45 46 46 45 44 44 44 44 43 42 41 41 40 40 39 40 41 40 40 41 41 38 35 31 28 28 26 25 26 24 23 23 23 21 19
51 50 49 49 48 48 48 48 48 48 47 47 46 46 45 45 46 49 50 50 50 50 48 47 47 46 45 45 46 47 47 46 44 44 44 44 42 41 41 40 40 39 38 39 39 39 39 40 40 38 35 31 29 28 27 26 25 24 22 21 20 19 18
52 51 51 50 49 48 47 47 46 45 45 45 43 41 41 42 44 46 48 50 51 51 50 49 48 46 46 45 46 47 47 46 45 44 44 43 41 40 41 40 39 38 38 38 38 38 38 37 38 38 34 31 29 28 27 24 23 23 23 20 19 18 18
51 51 50 50 49 47 46 45 44 43 42 41 40 38 38 39 40 42 44 47 49 50 50 49 48 47 46 45 46 46 46 45 45 44 44 42 40 40 40 40 40 39 38 38 37 37 36 36 38 38 35 32 30 29 26 22 21 23 21 19 19 17 15
50 49 48 48 48 47 45 44 43 42 40 38 38 38 39 40 41 41 42 45 48 49 50 49 49 48 45 44 44 45 46 45 45 45 44 43 41 40 40 39 39 39 39 38 38 37 36 36 38 39 36 33 30 29 26 23 21 22 19 18 18 15 12
48 47 46 45 46 46 45 44 43 41 40 39 38 38 38 39 40 41 41 43 46 47 48 47 47 46 45 43 43 44 45 44 44 44 43 42 41 42 42 41 40 39 38 38 38 37 36 37 39 39 37 34 31 29 26 23 21 20 19 17 16 13 10
47 46 45 45 45 45 45 44 42 40 39 39 38 37 37 38 39 40 41 42 44 45 45 44 44 44 43 42 41 41 42 42 42 40 39 38 38 39 40 40 41 40 39 39 38 37 37 38 38 39 38 34 30 28 25 22 20 19 18 16 14 13 12
46 46 45 45 45 45 45 44 42 39 37 36 37 37 36 37 39 40 41 43 43 45 45 45 44 43 42 41 40 40 41 41 40 39 38 37 36 36 36 36 37 38 38 38 38 38 39 38 37 39 38 33 29 27 25 22 20 18 17 15 13 13 14
46 46 45 45 46 46 46 44 40 37 34 33 33 32 32 34 37 39 39 40 39 40 42 43 43 42 41 40 39 39 39 40 40 39 38 37 37 37 36 35 34 32 32 33 35 36 37 36 36 37 35 31 29 27 24 21 17 16 14 13 13 15 14
47 47 46 46 45 46 46 42 38 35 32 30 29 28 30 34 37 38 38 37 35 34 35 37 39 39 39 40 39 38 38 38 39 38 38 38 38 38 38 37 36 33 30 29 31 32 30 30 32 34 34 33 31 27 23 18 15 13 12 12 14 15 11
47 47 47 46 45 45 46 42 37 33 29 27 27 29 32 36 37 37 37 35 33 32 30 31 34 36 38 39 38 37 35 35 36 37 37 37 38 38 40 40 40 38 35 31 31 31 30 28 29 30 30 31 30 26 23 19 16 15 15 15 16 14 7
48 47 47 47 45 45 46 43 38 32 28 26 27 30 33 36 36 35 34 32 30 29 27 28 30 33 36 38 37 34 31 30 32 34 35 36 37 38 40 41 41 40 39 36 31 30 31 30 29 28 27 27 27 26 24 22 20 19 17 16 16 12 5
49 48 47 46 45 44 45 44 39 32 28 28 29 30 33 34 33 31 30 28 25 23 23 24 26 30 34 35 34 31 26 25 28 31 31 31 32 34 36 37 37 36 37 38 32 27 29 29 26 25 24 23 23 24 24 25 24 21 17 16 15 9 4
49 49 48 46 45 44 43 43 40 33 28 28 30 31 31 31 29 28 26 23 20 19 20 22 26 29 31 32 31 28 25 23 25 29 29 27 27 29 31 31 30 30 34 38 34 27 26 27 25 23 21 19 19 21 23 23 23 21 17 16 13 7 5
48 50 49 47 46 44 41 40 38 33 29 29 31 29 28 27 26 24 22 19 18 18 20 22 26 28 29 29 28 26 24 23 23 25 27 27 27 29 28 27 26 26 29 36 39 34 28 25 23 24 24 22 19 20 22 24 23 21 18 16 14 10 9
48 49 49 48 46 45 42 39 38 36 33 31 30 27 25 24 23 20 18 17 17 19 20 22 25 27 27 26 25 24 24 22 22 23 25 26 27 26 25 25 26 24 23 27 34 38 37 31 24 21 22 24 23 20 21 24 25 23 20 19 17 13 12
49 49 49 49 48 47 45 42 41 40 37 32 29 27 24 22 20 16 15 16 16 18 19 20 23 24 25 24 23 23 23 22 22 23 24 25 25 23 21 21 23 22 21 21 24 30 36 39 34 25 20 20 22 22 21 23 26 25 23 20 17 14 13
49 49 49 50 50 49 48 46 44 42 36 29 26 24 22 20 17 14 13 14 15 17 18 19 21 21 21 21 21 21 21 21 21 22 22 23 23 22 20 20 21 21 20 20 20 21 27 34 38 36 29 24 24 25 23 22 24 25 23 19 16 15 15
49 48 49 51 52 50 48 46 44 39 31 25 22 21 20 19 16 14 12 11 12 16 18 18 19 19 18 18 19 19 20 20 20 20 21 22 21 21 20 22 24 23 20 20 20 20 22 28 33 36 36 35 33 31 26 22 21 22 21 19 18 18 17
48 48 50 51 51 50 48 45 43 36 27 22 20 18 16 16 14 14 14 10 7 12 17 17 15 15 15 15 16 17 18 19 19 20 21 21 21 20 20 23 26 26 23 21 20 19 21 25 27 29 33 36 36 33 29 26 24 23 22 21 21 20 18
48 50 51 50 48 48 46 44 43 36 25 21 20 16 12 12 14 16 17 13 7 7 13 14 13 12 13 14 16 17 17 18 18 18 19 20 20 21 21 23 26 27 26 23 20 18 20 23 24 24 26 27 28 27 27 28 28 27 26 25 24 22 20
48 49 49 46 45 45 44 45 43 34 23 20 18 12 8 8 10 14 17 16 10 7 9 12 13 12 12 13 15 16 17 19 20 20 19 19 20 22 22 22 24 26 25 23 20 18 18 19 20 20 20 20 21 22 24 27 28 29 28 26 24 22 21
47 46 43 41 42 43 44 46 43 31 19 16 13 10 11 9 6 8 13 16 13 8 8 9 11 13 14 14 14 15 17 18 19 21 20 18 18 22 23 22 22 25 25 22 20 17 16 16 17 18 19 20 22 23 24 26 26 26 26 24 23 22 20
42 40 38 38 39 42 46 50 45 30 17 13 11 11 13 12 8 6 8 14 15 10 8 9 10 13 14 14 14 14 15 15 15 16 17 16 17 22 24 22 22 24 25 24 21 18 17 17 17 18 19 20 22 23 23 22 22 22 22 22 21 19 16
33 33 34 34 36 40 43 46 42 27 15 11 10 9 12 11 7 6 4 7 14 15 11 8 10 13 12 11 11 12 14 13 13 13 15 14 16 20 23 23 22 23 24 24 22 20 19 19 19 20 19 19 21 22 22 21 20 21 21 20 19 16 14
28 28 29 31 34 38 39 41 41 30 17 12 9 6 6 7 4 3 4 2 6 13 14 10 8 11 10 7 8 11 12 12 12 12 13 14 16 19 22 24 24 23 23 23 22 21 21 20 19 19 18 17 20 22 22 21 20 20 20 18 15 14 13
29 27 28 29 33 37 38 39 42 37 24 13 9 7 6 5 4 2 2 2 3 7 14 11 7 8 9 7 7 9 9 10 11 12 13 14 16 18 20 23 24 23 23 23 22 22 22 21 21 19 16 16 19 22 22 21 19 18 18 17 15 13 13
30 32 32 32 32 35 37 37 37 37 31 19 10 8 8 8 6 1 5 5 4 5 12 10 5 6 7 6 7 8 8 8 9 10 12 14 16 18 19 21 23 22 22 21 21 22 22 22 22 21 18 18 21 23 22 19 16 14 15 17 17 15 13
32 35 36 36 35 35 36 35 34 35 33 26 17 12 10 7 6 8 7 3 2 6 11 9 6 6 6 5 7 7 6 6 7 9 12 14 15 17 18 19 20 20 20 21 22 22 21 21 22 23 22 21 23 24 21 17 14 12 14 15 15 12 8
37 37 37 38 39 36 34 33 32 32 32 30 25 19 13 10 13 13 10 7 6 6 7 5 6 7 6 5 6 6 5 4 6 10 15 16 15 17 18 18 19 19 20 22 22 21 21 21 21 21 22 24 25 24 21 18 14 13 16 16 14 12 8
39 37 36 37 38 36 33 30 29 29 29 29 27 25 21 19 20 18 15 12 9 5 4 3 4 4 3 3 3 4 7 9 10 12 17 19 20 20 21 20 20 21 22 23 23 22 21 21 21 21 20 21 22 22 21 20 18 17 19 19 16 14 12
Wind_Direction
306 305 303 301 297 293 290 288 287 286 287 288 286 282 278 275 272 267 266 268 269 268 269 271 273 273 267 262 260 260 260 259 258 256 255 253 252 251 250 248 247 249 254 257 258 260 261 260 260 261 263 268 273 274 276 277 279 283 285 285 285 284 281
307 305 303 301 299 296 292 290 287 284 281 279 281 283 280 274 268 264 265 267 267 266 266 268 270 271 267 263 260 259 258 257 256 254 253 252 251 251 250 248 246 248 252 255 256 257 259 260 260 261 263 267 270 272 274 275 278 283 285 286 287 286 284
309 307 305 303 301 298 295 292 288 285 282 278 274 275 275 273 268 264 265 266 265 264 264 265 266 269 268 263 259 258 256 255 254 253 252 252 250 250 251 249 247 247 250 253 254 255 257 259 260 262 264 266 268 270 271 273 278 283 286 288 289 288 287
311 309 306 304 303 301 298 295 291 287 284 280 276 271 269 269 269 267 265 264 263 262 261 262 263 267 268 264 259 257 255 253 252 251 250 250 250 250 250 250 248 247 248 250 252 253 255 258 260 262 264 265 266 268 269 273 278 283 288 291 291 291 291
312 310 308 306 304 302 300 298 295 291 286 282 278 272 267 265 267 267 265 263 261 260 260 260 261 264 267 264 259 256 254 252 251 250 249 249 249 249 250 249 248 247 247 248 250 251 253 257 259 260 262 262 265 267 269 272 277 282 288 291 291 293 294
315 313 310 307 305 303 301 299 297 295 291 286 281 276 269 264 263 264 264 263 261 259 258 258 259 262 264 262 259 255 253 250 249 248 248 247 247 248 248 248 247 246 246 246 248 250 251 254 257 258 259 261 264 267 268 270 275 281 287 290 291 292 293
316 314 312 309 307 305 303 302 300 298 295 291 285 280 274 267 263 262 262 261 261 259 258 257 258 260 261 261 259 255 251 248 247 247 247 247 246 247 247 246 246 244 244 245 246 247 248 250 254 256 258 259 263 264 265 268 276 281 283 285 290 294 294
317 314 312 311 309 308 306 304 302 299 296 294 291 287 281 273 267 263 262 261 260 258 257 257 257 258 259 260 258 254 250 247 245 245 245 245 245 245 245 244 243 242 242 242 243 244 246 248 251 254 256 257 259 260 261 268 277 281 284 287 290 294 294
318 316 314 312 310 309 307 305 301 299 298 296 294 292 288 281 274 269 265 262 259 258 257 257 257 258 259 259 256 252 248 246 245 244 244 243 243 243 243 242 240 240 239 240 241 242 243 245 249 252 253 253 255 257 261 268 274 278 283 288 290 293 293
319 317 315 313 311 309 308 307 304 302 299 294 290 288 285 282 278 274 268 264 260 258 256 255 256 257 258 258 255 251 248 245 245 245 244 244 243 242 241 239 238 237 237 237 239 240 241 243 247 251 252 252 254 256 261 267 271 275 280 282 286 292 291
320 318 317 315 314 312 311 309 306 303 299 293 289 286 282 279 277 274 270 265 262 260 256 254 255 256 257 256 253 250 247 246 246 246 246 246 246 245 243 239 237 236 236 237 239 240 240 242 247 250 252 252 254 255 259 266 269 271 274 276 281 285 282
321 319 318 318 316 313 312 310 308 305 300 294 290 286 282 279 276 274 271 267 264 261 258 255 254 255 255 254 251 247 244 244 246 246 245 243 244 246 247 244 241 239 238 238 239 240 241 243 246 250 251 251 252 253 260 267 267 265 268 268 269 273 276
322 321 320 320 317 315 313 311 310 308 303 297 292 287 282 278 276 274 273 271 268 263 259 256 254 253 252 250 249 245 242 241 243 244 243 241 241 243 245 246 247 246 244 243 243 243 244 246 247 249 251 250 251 254 261 265 261 258 260 258 257 267 276
324 323 322 321 319 316 314 313 312 311 307 301 295 286 281 281 281 279 277 276 272 265 259 255 251 248 247 246 245 242 240 238 239 240 241 240 240 241 241 241 243 245 245 245 244 245 246 248 248 250 251 251 252 255 259 259 253 250 253 252 257 270 279
325 324 322 322 320 317 315 314 314 313 309 302 291 280 280 287 289 285 280 277 274 268 262 256 251 246 244 242 241 240 239 238 237 238 239 239 239 239 239 238 237 236 237 240 242 245 248 250 249 249 251 251 252 253 252 247 238 234 238 243 254 269 282
325 324 323 322 321 319 316 316 316 314 309 302 291 282 284 289 290 287 284 279 275 272 267 260 251 244 241 238 238 239 240 239 238 237 237 238 238 238 238 238 238 236 237 240 243 245 248 251 251 250 250 250 248 246 241 232 224 224 228 238 252 266 282
325 324 324 322 321 319 317 317 318 315 309 304 296 289 290 292 291 290 287 283 278 274 267 258 247 240 237 234 235 239 239 237 237 238 237 238 238 238 238 239 239 239 239 238 240 243 245 249 252 251 250 248 243 238 230 221 220 223 226 237 253 263 267
325 324 324 323 321 320 318 317 318 316 309 303 299 294 295 295 293 290 288 285 282 275 262 251 241 235 233 231 233 236 232 228 231 235 237 239 239 240 240 240 241 241 236 231 230 234 236 239 246 251 252 247 239 233 227 219 217 220 225 235 245 251 249
326 324 325 324 322 321 319 316 317 317 310 304 300 296 296 296 294 291 290 290 284 270 253 241 235 232 231 231 233 233 228 224 228 232 234 236 237 239 241 241 240 238 232 225 222 223 225 226 231 238 244 244 233 225 225 222 217 218 224 228 227 230 248
326 325 324 324 322 321 320 318 317 318 315 307 302 296 293 296 297 293 294 294 279 259 243 234 230 228 228 231 231 229 225 224 227 232 234 232 232 237 243 244 242 237 231 224 221 222 222 221 222 226 233 241 236 220 217 220 221 220 220 219 218 228 247
327 326 324 324 324 323 323 322 319 317 316 310 304 295 290 296 298 293 295 296 275 251 238 229 225 224 224 225 225 224 223 223 223 230 235 233 235 242 245 243 242 240 235 229 225 225 225 224 221 218 222 233 240 232 216 211 217 222 220 217 219 228 246
329 327 325 326 327 325 325 325 321 318 316 312 306 297 291 293 294 287 291 293 269 246 236 229 223 221 222 221 221 222 223 223 222 226 231 235 241 245 239 235 240 243 241 238 233 229 228 227 224 216 210 216 230 237 227 210 211 220 221 219 221 231 246
330 329 327 327 328 328 328 327 324 322 321 317 310 300 290 288 286 278 284 289 267 245 235 229 225 225 224 224 224 224 224 226 225 224 227 230 234 234 226 224 234 241 242 241 239 234 230 228 224 219 213 207 214 226 228 216 209 212 216 219 226 236 243
330 329 327 327 327 329 331 332 332 330 327 323 317 305 292 287 283 276 279 287 270 248 238 233 231 231 229 225 223 221 221 226 227 225 225 226 227 227 223 220 227 235 240 240 238 235 230 227 224 220 215 213 216 220 221 217 213 215 220 226 231 235 238
329 329 328 327 326 328 331 334 336 335 332 328 324 315 296 282 272 264 262 262 253 244 242 239 236 235 231 226 222 221 223 227 227 224 224 224 224 225 223 221 224 230 235 237 236 233 228 225 222 217 214 216 221 222 218 214 215 219 225 231 234 236 239
330 329 329 328 328 330 331 333 335 335 334 330 327 321 297 268 250 243 240 230 212 222 237 238 236 232 227 221 217 218 221 225 226 224 225 228 228 227 225 224 224 225 230 235 237 233 227 222 217 213 212 215 219 221 215 210 212 218 223 228 232 235 238
329 329 329 330 332 333 333 334 335 335 334 331 331 332 319 284 254 240 232 222 204 193 212 226 230 225 218 214 215 218 222 225 228 230 231 232 230 228 226 224 224 227 230 235 236 230 223 217 211 208 208 206 206 207 206 207 213 219 223 226 230 234 237
328 330 333 335 337 339 339 339 340 338 332 330 335 346 352 344 310 262 238 219 204 186 183 202 215 214 211 213 217 222 225 227 228 229 229 228 224 222 220 219 222 227 230 232 233 228 217 212 208 204 200 198 200 204 205 207 212 216 218 222 227 230 232
332 338 343 345 346 345 344 345 344 338 327 322 322 327 340 350 355 325 258 221 207 191 168 174 193 202 208 215 218 221 226 226 224 222 221 221 218 216 216 216 217 222 224 225 225 221 215 210 206 203 202 200 202 205 204 202 206 210 212 217 222 223 223
343 347 351 353 353 352 351 352 351 344 329 323 318 305 312 325 344 3 340 220 206 198 183 175 188 196 204 215 217 218 222 223 222 222 222 219 214 213 214 215 215 218 222 222 218 214 214 211 208 209 210 204 200 199 196 194 199 203 205 210 215 212 208
351 352 354 357 358 358 359 3 5 1 345 329 332 334 324 319 317 349 6 348 210 201 195 191 195 201 211 226 224 220 222 223 223 226 227 222 215 211 212 214 213 213 216 218 217 213 212 212 212 211 207 200 196 194 189 187 190 193 193 196 201 200 196
0 359 359 0 2 2 3 8 13 15 11 354 345 4 16 355 332 304 247 284 278 205 191 192 208 219 225 237 229 217 218 220 221 223 225 223 216 210 209 211 211 210 211 215 220 218 215 214 216 215 209 197 189 183 178 177 179 182 181 181 185 192 196
7 7 6 5 5 6 7 10 16 24 29 29 20 10 4 351 349 51 179 223 273 200 177 180 207 229 230 232 221 215 221 232 237 230 219 211 208 205 204 205 207 206 205 209 216 220 221 220 218 217 212 196 179 172 174 177 176 176 179 181 185 192 202
5 9 11 9 7 7 9 12 17 25 32 39 44 38 21 20 65 97 109 76 55 154 164 172 196 218 225 219 210 218 236 246 241 220 201 192 192 196 199 202 204 205 207 209 212 215 216 215 213 212 209 194 175 170 176 179 174 176 185 185 188 198 211
358 5 10 10 7 7 10 13 17 23 30 36 44 50 58 80 94 95 88 70 83 142 171 191 214 225 230 221 222 237 239 212 194 190 185 181 180 183 187 192 194 194 195 194 190 185 181 179 182 188 191 184 172 170 178 182 181 190 196 194 198 214 228
356 1 7 9 9 9 12 14 17 22 28 33 39 47 58 69 74 74 74 73 80 108 154 192 215 217 193 166 172 183 172 159 150 151 153 153 154 157 159 161 162 162 163 164 164 164 164 164 165 168 171 172 171 174 181 184 186 191 196 198 208 226 237
Height
1402 1399 1396 1394 1392 1390 1388 1386 1385 1384 1383 1381 1379 1377 1376 1375 1374 1372 1370 1370 1369 1369 1369 1368 1368 1367 1367 1369 1369 1369 1370 1371 1372 1373 1374 1375 1375 1375 1376 1377 1377 1374 1370 1372 1376 1377 1378 1380 1380 1380 1381 1381 1381 1381 1381 1379 1379 1378 1377 1376 1375 1375 1374
1396 1394 1391 1388 1385 1383 1381 1379 1378 1377 1375 1374 1372 1371 1370 1369 1368 1366 1364 1364 1363 1362 1363 1362 1362 1361 1361 1363 1363 1363 1364 1365 1366 1367 1368 1369 1369 1369 1370 1371 1372 1370 1368 1368 1371 1373 1374 1375 1376 1376 1377 1378 1377 1377 1377 1376 1375 1375 1374 1373 1372 1371 1370
1392 1388 1385 1382 1379 1376 1374 1372 1370 1368 1367 1366 1365 1364 1363 1362 1361 1359 1358 1357 1356 1356 1357 1356 1355 1355 1356 1357 1357 1356 1357 1359 1360 1361 1361 1362 1364 1364 1364 1366 1367 1367 1365 1364 1366 1370 1370 1370 1371 1372 1373 1375 1374 1374 1374 1373 1372 1372 1371 1370 1369 1367 1366
1387 1383 1379 1375 1372 1369 1366 1364 1362 1360 1358 1357 1356 1355 1355 1354 1354 1352 1351 1350 1349 1349 1350 1350 1349 1349 1350 1351 1350 1350 1351 1352 1353 1355 1355 1356 1358 1359 1359 1361 1362 1362 1362 1361 1362 1365 1366 1366 1367 1368 1370 1371 1371 1370 1370 1370 1369 1368 1368 1367 1366 1364 1363
1380 1377 1373 1369 1365 1362 1358 1356 1353 1351 1349 1347 1347 1346 1345 1345 1345 1344 1343 1342 1342 1343 1343 1343 1342 1342 1344 1345 1344 1343 1344 1345 1347 1348 1349 1350 1351 1353 1354 1356 1357 1357 1358 1358 1358 1360 1362 1362 1363 1364 1366 1367 1367 1367 1367 1367 1366 1365 1365 1364 1363 1361 1360
1373 1370 1366 1362 1359 1355 1351 1348 1345 1342 1340 1338 1337 1336 1335 1335 1335 1335 1335 1335 1334 1335 1335 1336 1335 1336 1337 1338 1337 1336 1337 1339 1340 1342 1343 1344 1345 1348 1349 1350 1351 1352 1353 1354 1354 1356 1358 1358 1358 1360 1361 1363 1364 1364 1364 1363 1363 1363 1362 1361 1359 1359 1358
1365 1362 1358 1355 1351 1348 1345 1341 1338 1335 1332 1330 1328 1327 1326 1325 1326 1326 1326 1326 1326 1327 1327 1328 1328 1329 1330 1330 1330 1329 1330 1332 1334 1336 1337 1338 1340 1342 1344 1345 1346 1347 1349 1349 1350 1351 1353 1354 1355 1356 1357 1359 1360 1360 1360 1360 1360 1359 1359 1358 1357 1356 1356
1358 1354 1351 1347 1344 1341 1338 1334 1331 1328 1325 1322 1320 1319 1318 1317 1317 1317 1317 1318 1318 1319 1319 1319 1320 1321 1322 1323 1323 1323 1324 1325 1328 1330 1331 1332 1334 1337 1338 1339 1341 1342 1344 1344 1345 1346 1348 1350 1351 1351 1353 1355 1356 1356 1357 1357 1357 1356 1355 1356 1355 1354 1353
1353 1348 1344 1340 1337 1334 1331 1328 1325 1322 1320 1317 1314 1313 1312 1311 1310 1309 1309 1309 1310 1310 1311 1312 1312 1313 1314 1315 1316 1316 1318 1319 1321 1323 1324 1326 1329 1331 1332 1334 1336 1337 1338 1340 1341 1342 1344 1346 1346 1347 1349 1350 1351 1352 1354 1355 1354 1353 1353 1353 1352 1351 1351
1347 1343 1339 1334 1330 1327 1324 1321 1318 1315 1314 1313 1311 1309 1307 1305 1303 1303 1302 1302 1302 1302 1302 1304 1305 1306 1307 1309 1309 1310 1311 1313 1315 1317 1319 1321 1323 1325 1327 1328 1330 1331 1333 1335 1336 1337 1339 1341 1341 1342 1344 1346 1348 1349 1351 1351 1352 1351 1351 1350 1349 1349 1349
1341 1337 1333 1329 1324 1320 1317 1314 1312 1309 1308 1306 1305 1304 1301 1299 1297 1296 1296 1295 1294 1294 1294 1296 1297 1298 1300 1302 1302 1303 1305 1307 1309 1311 1313 1315 1317 1319 1321 1323 1324 1326 1328 1330 1331 1333 1335 1336 1336 1338 1340 1342 1344 1346 1347 1348 1349 1349 1348 1348 1347 1347 1347
1336 1331 1328 1324 1319 1315 1311 1308 1305 1303 1301 1299 1298 1297 1295 1293 1291 1290 1289 1288 1288 1288 1288 1289 1290 1291 1293 1294 1296 1297 1299 1301 1303 1306 1308 1310 1312 1314 1315 1317 1319 1321 1323 1325 1326 1328 1329 1331 1332 1334 1336 1338 1341 1343 1344 1345 1346 1346 1346 1346 1345 1345 1346
1330 1326 1322 1319 1314 1309 1305 1302 1299 1297 1295 1292 1291 1290 1289 1286 1284 1283 1282 1281 1281 1281 1281 1282 1283 1285 1286 1288 1290 1292 1293 1295 1298 1300 1303 1305 1307 1309 1310 1312 1314 1316 1318 1320 1322 1323 1324 1326 1329 1330 1332 1335 1337 1339 1341 1342 1343 1343 1343 1343 1343 1343 1344
1324 1320 1317 1314 1309 1304 1300 1296 1294 1291 1289 1287 1285 1283 1282 1280 1278 1277 1275 1274 1274 1273 1274 1275 1277 1278 1280 1281 1283 1286 1288 1290 1293 1295 1298 1300 1302 1304 1306 1308 1310 1312 1314 1316 1317 1318 1320 1323 1325 1326 1328 1332 1334 1336 1338 1339 1340 1341 1341 1341 1342 1342 1342
1320 1315 1311 1308 1304 1299 1294 1291 1289 1286 1283 1281 1279 1277 1275 1273 1272 1270 1268 1267 1267 1267 1267 1269 1270 1272 1274 1276 1278 1280 1283 1285 1288 1290 1293 1295 1297 1299 1301 1303 1306 1308 1310 1312 1313 1314 1316 1319 1321 1323 1325 1328 1330 1333 1335 1337 1338 1339 1339 1339 1340 1340 1340
1317 1312 1307 1302 1299 1294 1289 1286 1284 1281 1278 1276 1274 1272 1270 1267 1265 1263 1262 1261 1261 1261 1262 1263 1264 1266 1268 1270 1272 1275 1278 1281 1283 1285 1288 1289 1292 1294 1296 1298 1301 1304 1306 1309 1310 1311 1313 1316 1317 1320 1322 1324 1326 1329 1332 1334 1335 1335 1336 1337 1338 1338 1338
1312 1308 1304 1299 1294 1290 1285 1281 1279 1277 1274 1272 1269 1267 1265 1262 1260 1258 1257 1256 1256 1256 1256 1257 1259 1261 1263 1265 1268 1271 1274 1277 1279 1280 1283 1285 1287 1290 1291 1293 1296 1300 1302 1305 1308 1309 1311 1313 1314 1316 1319 1320 1323 1325 1328 1330 1331 1332 1334 1335 1336 1336 1337
1307 1303 1300 1295 1290 1286 1282 1277 1275 1273 1270 1267 1265 1262 1260 1258 1256 1254 1252 1251 1251 1251 1251 1252 1254 1256 1259 1261 1264 1267 1271 1274 1275 1276 1278 1281 1284 1285 1286 1288 1292 1295 1298 1301 1304 1306 1308 1310 1312 1313 1315 1317 1319 1322 1323 1325 1327 1329 1331 1333 1334 1335 1335
1303 1298 1294 1291 1286 1282 1278 1273 1270 1268 1265 1263 1260 1258 1256 1254 1252 1250 1248 1247 1247 1247 1247 1249 1250 1253 1255 1258 1261 1264 1267 1270 1272 1273 1275 1278 1280 1281 1282 1284 1288 1290 1293 1296 1299 1302 1304 1307 1309 1311 1312 1314 1316 1319 1320 1322 1324 1327 1329 1330 1332 1333 1334
1300 1294 1290 1286 1282 1278 1274 1270 1266 1263 1261 1258 1256 1253 1252 1250 1248 1246 1245 1244 1243 1244 1245 1246 1248 1250 1252 1255 1258 1261 1264 1267 1269 1270 1272 1274 1276 1277 1278 1281 1284 1286 1289 1292 1295 1298 1300 1303 1305 1308 1310 1311 1313 1315 1317 1319 1322 1324 1326 1328 1330 1331 1332
1296 1291 1285 1281 1277 1273 1269 1265 1262 1259 1256 1254 1251 1249 1247 1246 1245 1244 1242 1241 1241 1241 1242 1243 1245 1247 1250 1252 1255 1258 1261 1263 1266 1267 1269 1270 1272 1274 1276 1279 1280 1283 1285 1288 1291 1294 1297 1299 1302 1304 1306 1308 1310 1312 1314 1317 1319 1321 1323 1325 1327 1328 1330
1292 1287 1282 1276 1272 1268 1264 1260 1257 1254 1251 1249 1246 1244 1243 1243 1242 1241 1241 1240 1239 1240 1240 1241 1243 1245 1248 1250 1253 1255 1258 1260 1263 1265 1266 1268 1270 1272 1275 1276 1277 1280 1283 1285 1288 1290 1293 1295 1298 1301 1303 1305 1307 1309 1311 1314 1316 1318 1321 1323 1325 1326 1328
1288 1284 1279 1273 1268 1263 1258 1255 1252 1248 1246 1243 1242 1240 1239 1239 1239 1239 1239 1238 1237 1238 1239 1240 1241 1243 1246 1248 1251 1253 1256 1258 1260 1262 1264 1266 1268 1270 1273 1274 1275 1277 1280 1282 1284 1286 1288 1290 1294 1297 1300 1302 1304 1307 1309 1311 1314 1316 1319 1321 1323 1324 1326
1286 1282 1277 1271 1264 1259 1254 1250 1247 1244 1241 1239 1238 1236 1236 1236 1236 1236 1236 1235 1235 1236 1237 1238 1240 1242 1244 1246 1248 1251 1253 1255 1257 1260 1262 1264 1266 1268 1271 1272 1273 1274 1277 1279 1281 1283 1284 1286 1289 1293 1296 1298 1301 1304 1307 1310 1312 1315 1317 1319 1321 1322 1324
1284 1280 1275 1269 1263 1256 1251 1247 1243 1240 1238 1236 1234 1233 1232 1232 1232 1232 1232 1232 1232 1234 1235 1237 1238 1240 1242 1244 1246 1248 1251 1253 1255 1257 1259 1262 1264 1266 1268 1270 1270 1272 1274 1276 1278 1280 1281 1283 1285 1288 1292 1295 1299 1302 1305 1308 1310 1313 1315 1317 1319 1320 1322
1283 1278 1273 1267 1261 1255 1249 1244 1240 1237 1235 1233 1231 1230 1229 1229 1229 1229 1229 1230 1231 1232 1233 1235 1237 1239 1241 1243 1244 1247 1249 1250 1252 1254 1257 1259 1261 1263 1265 1267 1268 1270 1272 1274 1276 1277 1279 1281 1283 1286 1290 1293 1297 1300 1302 1305 1307 1310 1312 1314 1316 1318 1319
1282 1277 1271 1266 1260 1254 1249 1243 1238 1235 1233 1231 1230 1228 1227 1227 1227 1227 1227 1229 1230 1231 1232 1234 1236 1238 1240 1242 1243 1245 1247 1249 1250 1252 1254 1256 1258 1260 1262 1264 1266 1267 1269 1271 1274 1275 1277 1279 1282 1285 1289 1292 1294 1297 1299 1302 1304 1307 1309 1311 1313 1315 1317
1282 1277 1272 1266 1260 1254 1248 1242 1236 1233 1231 1230 1229 1227 1227 1226 1226 1226 1226 1228 1230 1231 1232 1234 1236 1238 1239 1241 1242 1244 1245 1246 1248 1250 1252 1253 1255 1257 1259 1262 1264 1266 1268 1270 1272 1274 1277 1279 1281 1284 1287 1290 1292 1294 1297 1299 1302 1304 1307 1309 1311 1313 1314
1283 1279 1273 1267 1261 1255 1248 1241 1235 1232 1230 1229 1228 1227 1226 1226 1226 1226 1226 1227 1229 1231 1232 1233 1235 1237 1238 1240 1241 1242 1243 1245 1246 1248 1250 1251 1253 1255 1257 1259 1262 1264 1266 1268 1271 1273 1275 1278 1280 1283 1285 1288 1290 1292 1295 1298 1300 1303 1305 1307 1309 1311 1313
1283 1278 1273 1267 1261 1256 1250 1243 1237 1233 1230 1228 1227 1227 1226 1226 1226 1226 1226 1226 1228 1230 1231 1233 1234 1236 1237 1239 1239 1240 1242 1243 1245 1246 1248 1249 1251 1253 1255 1257 1260 1262 1264 1267 1269 1272 1274 1277 1279 1282 1284 1286 1288 1291 1294 1297 1299 1301 1304 1306 1307 1309 1311
1281 1276 1272 1267 1262 1256 1250 1244 1238 1233 1229 1227 1227 1226 1226 1226 1226 1226 1226 1226 1228 1229 1231 1232 1234 1236 1237 1238 1239 1240 1241 1242 1244 1245 1246 1248 1249 1251 1253 1255 1258 1260 1263 1265 1268 1271 1273 1276 1278 1280 1283 1285 1287 1290 1293 1295 1298 1300 1302 1304 1306 1308 1310
1278 1273 1269 1266 1262 1257 1251 1245 1239 1233 1229 1227 1227 1227 1226 1226 1226 1226 1227 1227 1228 1229 1231 1233 1234 1235 1236 1237 1238 1239 1241 1242 1243 1243 1245 1246 1248 1249 1251 1254 1256 1259 1262 1265 1267 1269 1272 1275 1277 1279 1282 1284 1286 1289 1291 1294 1296 1299 1301 1303 1305 1307 1309
1276 1272 1268 1265 1261 1257 1252 1247 1241 1236 1231 1229 1228 1228 1227 1227 1227 1227 1228 1228 1228 1229 1231 1233 1234 1235 1236 1237 1238 1239 1240 1241 1241 1242 1243 1244 1246 1248 1251 1253 1256 1259 1261 1264 1266 1268 1271 1274 1276 1278 1281 1283 1285 1288 1291 1293 1296 1298 1300 1302 1304 1306 1307
1273 1271 1268 1264 1261 1258 1254 1249 1245 1240 1236 1233 1231 1230 1229 1228 1228 1228 1230 1230 1230 1231 1232 1234 1235 1236 1237 1237 1238 1239 1239 1240 1240 1240 1241 1243 1246 1248 1250 1253 1255 1258 1260 1263 1265 1268 1270 1272 1275 1277 1280 1282 1285 1287 1290 1293 1295 1297 1299 1301 1303 1305 1306
1275 1272 1270 1267 1264 1260 1257 1253 1249 1245 1242 1239 1236 1234 1232 1230 1230 1231 1232 1232 1232 1233 1234 1235 1236 1237 1238 1238 1238 1239 1239 1240 1240 1240 1241 1243 1246 1248 1250 1253 1255 1257 1260 1262 1265 1267 1269 1271 1274 1277 1279 1282 1284 1287 1290 1292 1295 1297 1298 1300 1302 1303 1305
1278 1274 1272 1269 1266 1262 1258 1255 1252 1249 1246 1243 1241 1238 1236 1234 1234 1235 1235 1235 1235 1235 1236 1236 1237 1237 1238 1239 1239 1239 1240 1241 1242 1243 1243 1245 1247 1249 1251 1254 1256 1258 1260 1263 1265 1267 1269 1272 1274 1276 1279 1281 1284 1287 1289 1292 1294 1296 1298 1299 1301 1302 1303